Weather History for Eugene, OR

Change the Weather History Date:

Sunday, September 23, 2012

  Actual Average Record
Temperature  
Mean Temperature 64 °F 60 °F  
Max Temperature 77 °F 75 °F 96 °F (1943)
Min Temperature 51 °F 46 °F 31 °F (2000)
Degree Days  
Heating Degree Days 1 5  
Month to date heating degree days 57 75  
Since 1 July heating degree days 98 142  
Cooling Degree Days 0 1  
Month to date cooling degree days 26 30  
Year to date cooling degree days 226 238  
Growing Degree Days 14 (Base 50)    
Moisture  
Dew Point 49 °F    
Average Humidity 66    
Maximum Humidity 100    
Minimum Humidity 31    
Precipitation  
Precipitation 0.01 in 0.05 in 0.99 in (1948)
Month to date precipitation 0.02 0.91  
Year to date precipitation 30.86 26.92  
Snow  
Snow 0.00 in - - ()
Month to date snowfall 0.0  
Since 1 July snowfall 0.0  
Since 1 September snowfall 0.0  
Snow Depth 0.00 in    
Sea Level Pressure  
Sea Level Pressure 30.10 in    
Wind  
Wind Speed 5 mph (NNE)    
Max Wind Speed 14 mph    
Max Gust Speed 17 mph    
Visibility 10 miles    
Events Rain    
T = Trace of Precipitation, MM = Missing Value Source: NWS Daily Summary

Daily Weather History Graph

Daily Weather History Graph

Search for Another Location

Airport:

Trip Planner

Search our weather history database for the weather conditions in past years. The results will help you decide how hot, cold, wet, or windy it might be!

Date:

Astronomy

Sep. 23, 2012 Rise Set
Actual Time 7:01 AM PDT 7:07 PM PDT
Civil Twilight 6:33 AM PDT 7:36 PM PDT
Nautical Twilight 5:59 AM PDT 8:09 PM PDT
Astronomical Twilight 5:24 AM PDT 8:44 PM PDT
Moon 3:24 PM PDT (9/23) 12:07 AM PDT (9/23)
Length of Visible Light 13h 03m
Length of Day
12h 05m
First Quarter, 61% of the Moon is Illuminated
Sep 23
First Quarter
Sep 29
Full
Oct 8
Last Quarter
Oct 15
New
Oct 21
First Quarter

Hourly Weather History & Observations

Time (PDT) Temp. Dew Point Humidity Pressure Visibility Wind Dir Wind Speed Gust Speed Precip Events Conditions
12:54 AM 55.9 °F 51.1 °F 84% 30.09 in 10.0 mi Calm Calm - 0.00 in   Clear
1:54 AM 51.1 °F 48.9 °F 92% 30.11 in 10.0 mi NE 3.5 mph - 0.00 in   Partly Cloudy
2:54 AM 52.0 °F 48.9 °F 89% 30.10 in 10.0 mi North 5.8 mph - 0.00 in   Overcast
3:54 AM 54.0 °F 52.0 °F 93% 30.10 in 10.0 mi Calm Calm - 0.01 in Rain Light Rain
4:54 AM 53.1 °F 51.1 °F 93% 30.10 in 10.0 mi Calm Calm - 0.00 in   Mostly Cloudy
5:54 AM 53.1 °F 51.1 °F 93% 30.10 in 10.0 mi Calm Calm - N/A   Overcast
6:54 AM 54.0 °F 53.1 °F 97% 30.11 in 10.0 mi Calm Calm - N/A   Mostly Cloudy
7:54 AM 53.1 °F 51.1 °F 93% 30.12 in 10.0 mi Calm Calm - N/A   Mostly Cloudy
8:54 AM 57.9 °F 52.0 °F 81% 30.13 in 10.0 mi NE 3.5 mph - N/A   Scattered Clouds
9:54 AM 61.0 °F 52.0 °F 72% 30.13 in 10.0 mi NE 5.8 mph - N/A   Scattered Clouds
10:54 AM 66.9 °F 52.0 °F 59% 30.13 in 10.0 mi NNE 6.9 mph - N/A   Scattered Clouds
11:54 AM 69.1 °F 52.0 °F 54% 30.12 in 10.0 mi North 5.8 mph - N/A   Scattered Clouds
12:54 PM 72.0 °F 51.1 °F 48% 30.11 in 10.0 mi Variable 4.6 mph - N/A   Scattered Clouds
1:54 PM 73.0 °F 48.9 °F 42% 30.09 in 10.0 mi Variable 3.5 mph - N/A   Scattered Clouds
2:54 PM 75.0 °F 48.0 °F 38% 30.08 in 10.0 mi Calm Calm - N/A   Mostly Cloudy
3:54 PM 75.9 °F 46.9 °F 36% 30.07 in 10.0 mi NNW 13.8 mph - N/A   Scattered Clouds
4:54 PM 75.9 °F 46.0 °F 35% 30.07 in 10.0 mi North 12.7 mph - N/A   Scattered Clouds
5:54 PM 75.0 °F 42.1 °F 31% 30.07 in 10.0 mi North 10.4 mph - N/A   Scattered Clouds
6:54 PM 69.8 °F 46.4 °F 43% 30.07 in 10.0 mi NNE 6.9 mph - N/A   Scattered Clouds
7:54 PM 62.6 °F 48.2 °F 59% 30.09 in 10.0 mi North 3.5 mph - N/A   Scattered Clouds
8:54 PM 60.8 °F 44.6 °F 55% 30.10 in 10.0 mi NNW 6.9 mph - N/A   Partly Cloudy
9:54 PM 57.0 °F 45.0 °F 64% 30.10 in 10.0 mi Calm Calm - N/A   Clear
10:54 PM 54.0 °F 44.1 °F 69% 30.11 in 10.0 mi Calm Calm - N/A   Clear
11:54 PM 53.1 °F 44.1 °F 71% 30.11 in 10.0 mi Calm Calm - N/A   Clear